FENGYUN 1C DEB, 31049

Orbit data source: Space-Track

FENGYUN 1C DEB, 31049 is space debris in SSO originally from a launch on Mon, 10 May 1999 UTC launched from the Taiyaun Space Center, China (TSC). Fengyun 1C debris stems from the Chinese weather satellite Fengyun-1C, which was intentionally destroyed by a Chinese anti-satellite missile in 2007. This event dramatically increased the amount of space debris, with thousands of trackable fragments posing hazards to satellites and human spaceflight. The Fengyun 1C debris cloud has become a focal point in discussions about space sustainability and the need for international regulations to prevent the creation of new debris.

Loading next visibility...
Identifier
31049, 1999-025BET
Orbit
SSO
Country
Flag of CNCN / PRC
Related business
Manufacturer
Unknown
Mission
Spacecraft
Bus & Motor
Unknown
Mass
Unknown
Launch date (UTC)
1999-05-10 (27 years ago)
Launch vehicle
Unknown
Launch site
Taiyaun Space Center, China (TSC)
Object type
Payload
Rocket body
Debris
Shape & HBR
Unknown shape, 0.1 m
Radar Cross Section
Small (<0.1 m²)

Expand to show TLE details & history
Last TLE update: 5 months ago

TLE from 5 months ago
0 FENGYUN 1C DEB
1 31049U 99025BET 25160.26080283  .00000572  00000-0  38429-3 0  9998
2 31049  98.7847 176.5158 0049142 295.4773  64.1315 14.04057506584988
Epoch: 2025-06-09T06:15Z
TLE epoch observation values (Epoch: 2025-06-09T06:15:33.364Z)
Latitude
-0.00006°
Longitude
-175.24777°
Altitude
867.246 km
Speed
7.427 km/s
True Right ascension
11h 46m 03s
True Declination
0° 00' 00"
Sunlit
Object was in daylight at epoch
Visualization orbit readout
Latitude
Unknown
Longitude
Unknown
Altitude
Unknown
Speed
Unknown
Apparent Right ascension
Unknown
Apparent Declination
Unknown
Sunlit
N/A
Visualization observer readout
Local Sidereal Time
07:43:15
Azimuth
Unknown
Elevation
Unknown
Doppler factor
Unknown
Orbital elements
Apogee altitude
912.615 km
Perigee altitude
841.309 km
Semi-major axis
7,255.099 km
Eccentricity
0.00491
Inclination
98.7847°
RAAN
176.5158°
Arg. of periapsis
295.4773°
True anomaly
64.63955°
Mean anomaly
64.1315°
Eccentric anomaly
64.38539°
Mean motion
3.51219 °/min
Orbital period
102.5 mins
BSTAR
0.00038429
Loading maneuver chart data...
Computing Atmospheric mass density...

Documentation

Showing up to 5 results
|